STARLINK-34025, 63824

Orbit data source: Space-Track

STARLINK-34025, 63824 is a payload satellite owned by SpaceX/Seattle (US) in LEO that was launched on Sun, 04 May 2025 UTC via an FALCON 9 launch vehicle from the Air Force Eastern Test Range (AFETR). Payload-class satellites include a variety of spacecraft equipped with specific instruments for various scientific and technological missions. These include communications satellites like Starlink; space stations such as the ISS; scientific satellites like the Hubble; Earth observation satellites from companies like Planet Labs, Umbra, and HawkEye 360; GPS; miniature CubeSats for education and research; and military/defense satellites.

Loading next visibility...
Identifier
63824, 2025-092W
Orbit
LEO
Last TLE update
10 hours ago
Origin
Manufacturer
SpaceX/Seattle
Mission
Operational spacecraft
Bus & Motor
STARLINK V2MO, Unknown motor
Mass
575 kg wet, ~530 kg dry
Launch date (UTC)
2025-05-04 (1 week ago)
Launch vehicle
FALCON 9
Launch site
Air Force Eastern Test Range (AFETR)
Object type
Payload
Rocket body
Debris
Shape & HBR
Unknown
Radar Cross Section
Medium (>0.1 m² and <1 m²)

Expand to show TLE details & history

TLE from 10 hours ago
0 STARLINK-34025
1 63824U 25092W   25133.16668981 -.01020914  00000-0 -38069-2 0  9997
2 63824  43.0011  78.5394 0001125 273.2140  59.4681 15.89324817  2483
Epoch: 2025-05-13T04:00Z
Definitive object data (Epoch: 2025-05-13T04:00:01.999Z)
Latitude
-18.38605°
Longitude
126.60436°
Altitude
307.696 km
Speed
7.724 km/s
True Right ascension
03h 51m 07s
True Declination
-18° 16' 35"
Sunlit
Object was in daylight at TLE epoch
Visualization TLE readout
Latitude
-39.31572°
Longitude
83.84469°
Altitude
317.784 km
Speed
7.718 km/s
Apparent Right ascension
05h 32m 27s
Apparent Declination
-71° 01' 54"
Sunlit
Object is in daylight
Visualization observer readout
Local Sidereal Time
22:49:25
Azimuth
155.051° SSE
Elevation
-40.796°
Doppler factor
1
Orbital elements
Apogee altitude
306.924 km
Perigee altitude
305.42 km
Semi-major axis
6,684.309 km
Eccentricity
0.0001125
Inclination
43.0011°
RAAN
78.5394°
Arg. of periapsis
273.214°
True anomaly
59.4792°
Mean anomaly
59.4681°
Eccentric anomaly
59.47365°
Mean motion
3.97154 °/min
BSTAR
-0.0038069
Orbital period
90.65 mins
Loading maneuver chart data...
Loading SW <> Apogee altitude chart data...
Loading historical data...
Loading historical data...
Loading historical data...
Loading historical data...
Loading historical data...
Loading historical data...
Loading historical data...

STARLINK-34025 Visibility forecast

Observer location: undefined°, undefined°

Span
Click to sort rows by Start time (UTC) header in descending order
Start Az.
Max El. time (UTC)
Max El. Az.
Max El.
End time (UTC)
End Az.
4 mins2025-05-13 23:57:30.350Z227.011° WSW2025-05-13 23:59:30.350Z176.322° S33.228°2025-05-14 00:01:30.350Z87.894° E
|